STARLINK-36852

Last updated on Fri Mar 27 2026 00:02:06 GMT+0000 (Coordinated Universal Time)

1 67933U 26037B 26085.35668999 .00059291 00000+0 10059-2 0 9994 2 67933 43.0005 98.8871 0002114 290.1812 69.8821 15.50659839 5868
UTC large
Height (km)
Speed (km/s)
/
Latitude / Longitude
Inclination (degrees)
Orbital Period (minutes)
Azimuth
Elevation
Range (km)
Doppler Factor

Next 0 passes for location: London (51.5072 / 0.1276)

Sorry there are no passes over London.